• In Kazakhstan
  • List of Countries
  • For 7 days
  • Water Temperature
  • Satellite Maps
  • Weather Map
  • News
  • Weather Widgets
  • user-avatar
    Login

    Hourly Weather Kipungo

    Today, 19 January, Saturday

    Time Temperature Precipitation Wind Pressure Humidity
    00:00 +20°C° 1.1 mm 2 mps 653 mmHg 88%
    01:00 +19°C° 0 mm 2 mps 653 mmHg 85%
    02:00 +19°C° 0 mm 2 mps 653 mmHg 85%
    03:00 +18°C° 0 mm 2 mps 652 mmHg 85%
    04:00 +18°C° 0 mm 2 mps 652 mmHg 86%
    05:00 +18°C° 0 mm 2 mps 652 mmHg 83%
    06:00 +19°C° 0 mm 2 mps 653 mmHg 81%
    07:00 +19°C° 0 mm 2 mps 653 mmHg 81%
    08:00 +23°C° 0 mm 2 mps 654 mmHg 70%
    09:00 +25°C° 0 mm 2 mps 655 mmHg 58%
    10:00 +27°C° 0 mm 2 mps 655 mmHg 47%
    11:00 +29°C° 0 mm 2 mps 655 mmHg 43%
    12:00 +31°C° 0 mm 2 mps 655 mmHg 39%
    13:00 +32°C° 0 mm 1 mps 654 mmHg 38%
    14:00 +31°C° 0.2 mm 2 mps 654 mmHg 43%
    15:00 +30°C° 0.2 mm 3 mps 654 mmHg 47%
    16:00 +29°C° 0.2 mm 3 mps 653 mmHg 52%
    17:00 +27°C° 1.9 mm 3 mps 653 mmHg 63%
    18:00 +24°C° 1.9 mm 3 mps 653 mmHg 74%
    19:00 +21°C° 1.9 mm 3 mps 652 mmHg 85%
    20:00 +20°C° 0.1 mm 3 mps 653 mmHg 86%
    21:00 +20°C° 0.1 mm 3 mps 653 mmHg 86%
    22:00 +20°C° 0.1 mm 3 mps 654 mmHg 87%
    23:00 +19°C° 0.6 mm 2 mps 654 mmHg 89%

    Tomorrow, 20 January, Sunday

    Time Temperature Precipitation Wind Pressure Humidity
    00:00 +19°C° 0.6 mm 2 mps 654 mmHg 92%
    01:00 +20°C° 0.6 mm 1 mps 654 mmHg 94%
    02:00 +20°C° 0.4 mm 1 mps 654 mmHg 94%
    03:00 +20°C° 0.4 mm 1 mps 654 mmHg 94%
    04:00 +18°C° 0.4 mm 0 mps 654 mmHg 95%
    05:00 +18°C° 0.1 mm 0 mps 654 mmHg 94%
    06:00 +20°C° 0.1 mm 1 mps 654 mmHg 93%
    07:00 +20°C° 0.1 mm 1 mps 654 mmHg 92%
    08:00 +21°C° 0.1 mm 1 mps 654 mmHg 88%
    09:00 +22°C° 0.1 mm 1 mps 655 mmHg 84%
    10:00 +21°C° 0.1 mm 2 mps 655 mmHg 79%
    11:00 +24°C° 0 mm 2 mps 655 mmHg 70%
    12:00 +26°C° 0 mm 2 mps 655 mmHg 61%
    13:00 +28°C° 0 mm 1 mps 655 mmHg 51%
    14:00 +29°C° 0 mm 2 mps 654 mmHg 49%
    15:00 +29°C° 0 mm 2 mps 654 mmHg 47%
    16:00 +29°C° 0 mm 2 mps 654 mmHg 46%
    17:00 +28°C° 0.2 mm 2 mps 654 mmHg 54%
    18:00 +26°C° 0.2 mm 1 mps 654 mmHg 62%
    19:00 +24°C° 0.2 mm 1 mps 653 mmHg 70%
    20:00 +24°C° 1.2 mm 1 mps 654 mmHg 74%
    21:00 +23°C° 1.2 mm 1 mps 654 mmHg 79%
    22:00 +22°C° 1.2 mm 1 mps 655 mmHg 83%
    23:00 +22°C° 0.2 mm 1 mps 654 mmHg 85%

    Day after tomorrow, 21 January, Monday

    Time Temperature Precipitation Wind Pressure Humidity
    00:00 +21°C° 0.2 mm 1 mps 654 mmHg 87%
    01:00 +19°C° 0.2 mm 2 mps 654 mmHg 89%
    02:00 +20°C° 0.1 mm 1 mps 654 mmHg 90%
    03:00 +20°C° 0.1 mm 1 mps 653 mmHg 91%
    04:00 +20°C° 0.1 mm 1 mps 653 mmHg 91%
    05:00 +20°C° 0.1 mm 1 mps 654 mmHg 90%
    06:00 +20°C° 0.1 mm 1 mps 654 mmHg 89%
    07:00 +21°C° 0.1 mm 1 mps 655 mmHg 88%
    08:00 +21°C° 0 mm 2 mps 655 mmHg 81%
    09:00 +24°C° 0 mm 2 mps 655 mmHg 74%
    10:00 +26°C° 0 mm 2 mps 656 mmHg 67%
    11:00 +27°C° 0.3 mm 2 mps 655 mmHg 64%
    12:00 +27°C° 0.3 mm 2 mps 655 mmHg 61%
    13:00 +28°C° 0.3 mm 2 mps 655 mmHg 58%
    14:00 +27°C° 1.8 mm 2 mps 654 mmHg 65%
    15:00 +26°C° 1.8 mm 2 mps 653 mmHg 72%
    16:00 +25°C° 1.8 mm 2 mps 652 mmHg 79%
    17:00 +24°C° 2.3 mm 2 mps 652 mmHg 82%
    18:00 +23°C° 2.3 mm 1 mps 653 mmHg 84%
    19:00 +22°C° 2.3 mm 1 mps 653 mmHg 87%
    20:00 +22°C° 1.4 mm 1 mps 653 mmHg 88%
    21:00 +22°C° 1.4 mm 1 mps 654 mmHg 88%
    22:00 +22°C° 1.4 mm 1 mps 654 mmHg 88%
    23:00 +22°C° 0.8 mm 1 mps 654 mmHg 89%

    22 January, Tuesday

    Time Temperature Precipitation Wind Pressure Humidity
    00:00 +21°C° 0.8 mm 1 mps 654 mmHg 90%
    01:00 +21°C° 0.8 mm 1 mps 653 mmHg 91%
    02:00 +21°C° 0.1 mm 1 mps 653 mmHg 92%
    03:00 +21°C° 0.1 mm 1 mps 653 mmHg 92%
    04:00 +20°C° 0.1 mm 1 mps 653 mmHg 93%
    05:00 +21°C° 0.4 mm 1 mps 653 mmHg 92%
    06:00 +21°C° 0.4 mm 1 mps 654 mmHg 91%
    07:00 +21°C° 0.4 mm 1 mps 654 mmHg 90%
    08:00 +23°C° 0.4 mm 1 mps 655 mmHg 81%
    09:00 +25°C° 0.4 mm 1 mps 655 mmHg 72%
    10:00 +27°C° 0.4 mm 1 mps 656 mmHg 63%
    11:00 +28°C° 0 mm 2 mps 655 mmHg 57%
    12:00 +29°C° 0.1 mm 2 mps 655 mmHg 52%
    13:00 +30°C° 0.1 mm 2 mps 654 mmHg 46%
    14:00 +30°C° 0 mm 2 mps 654 mmHg 46%
    15:00 +30°C° 0 mm 2 mps 653 mmHg 46%
    16:00 +30°C° 0 mm 2 mps 653 mmHg 46%
    17:00 +28°C° 0 mm 2 mps 653 mmHg 52%
    18:00 +27°C° 0 mm 1 mps 653 mmHg 57%
    19:00 +25°C° 0 mm 1 mps 653 mmHg 63%
    20:00 +24°C° 0.5 mm 1 mps 653 mmHg 69%
    21:00 +24°C° 0.5 mm 1 mps 653 mmHg 74%
    22:00 +23°C° 0.5 mm 2 mps 654 mmHg 80%
    23:00 +21°C° 0.1 mm 2 mps 653 mmHg 82%

    23 January, Wednesday

    Time Temperature Precipitation Wind Pressure Humidity
    00:00 +20°C° 0.1 mm 2 mps 653 mmHg 83%
    01:00 +20°C° 0.1 mm 2 mps 653 mmHg 85%
    02:00 +19°C° 0 mm 2 mps 652 mmHg 87%
    03:00 +19°C° 0 mm 2 mps 652 mmHg 89%
    04:00 +18°C° 0 mm 2 mps 652 mmHg 91%
    05:00 +20°C° 0 mm 1 mps 652 mmHg 89%
    06:00 +20°C° 0 mm 1 mps 653 mmHg 88%
    07:00 +21°C° 0 mm 1 mps 654 mmHg 86%
    08:00 +24°C° 0 mm 1 mps 654 mmHg 74%
    09:00 +27°C° 0 mm 1 mps 655 mmHg 62%
    10:00 +29°C° 0 mm 1 mps 655 mmHg 51%
    11:00 +31°C° 0 mm 2 mps 655 mmHg 44%
    12:00 +32°C° 0 mm 2 mps 654 mmHg 37%
    13:00 +35°C° 0 mm 3 mps 654 mmHg 30%
    14:00 +34°C° 0 mm 2 mps 653 mmHg 32%
    15:00 +32°C° 0 mm 2 mps 653 mmHg 34%
    16:00 +31°C° 0 mm 2 mps 652 mmHg 36%
    17:00 +29°C° 0 mm 2 mps 652 mmHg 44%
    18:00 +28°C° 0 mm 3 mps 652 mmHg 52%
    19:00 +26°C° 0 mm 3 mps 652 mmHg 60%
    20:00 +24°C° 0 mm 3 mps 652 mmHg 65%
    21:00 +22°C° 0 mm 3 mps 653 mmHg 70%
    22:00 +21°C° 0 mm 2 mps 653 mmHg 75%
    23:00 +20°C° 0 mm 2 mps 653 mmHg 78%

    24 January, Thursday

    Time Temperature Precipitation Wind Pressure Humidity
    00:00 +20°C° 0 mm 2 mps 652 mmHg 82%
    01:00 +19°C° 0 mm 2 mps 652 mmHg 85%
    02:00 +19°C° 0 mm 2 mps 652 mmHg 86%
    03:00 +18°C° 0 mm 2 mps 651 mmHg 87%
    04:00 +18°C° 0 mm 2 mps 651 mmHg 89%
    05:00 +20°C° 0 mm 1 mps 652 mmHg 85%
    06:00 +18°C° 0 mm 0 mps 652 mmHg 81%
    07:00 +19°C° 0 mm 0 mps 653 mmHg 77%
    08:00 +23°C° 0 mm 0 mps 654 mmHg 64%
    09:00 +27°C° 0 mm 0 mps 655 mmHg 51%
    10:00 +31°C° 0 mm 0 mps 656 mmHg 38%
    11:00 +32°C° 0 mm 0 mps 655 mmHg 33%
    12:00 +36°C° 0 mm 1 mps 655 mmHg 27%
    13:00 +37°C° 0 mm 1 mps 654 mmHg 22%
    14:00 +36°C° 0 mm 1 mps 654 mmHg 22%
    15:00 +37°C° 0 mm 2 mps 653 mmHg 22%
    16:00 +36°C° 0 mm 2 mps 652 mmHg 22%
    17:00 +34°C° 0 mm 2 mps 652 mmHg 28%
    18:00 +30°C° 0 mm 2 mps 652 mmHg 35%
    19:00 +28°C° 0 mm 2 mps 652 mmHg 41%
    20:00 +27°C° 0 mm 2 mps 652 mmHg 49%
    21:00 +26°C° 0 mm 3 mps 653 mmHg 58%
    22:00 +25°C° 0 mm 4 mps 653 mmHg 66%
    23:00 +25°C° 0 mm 3 mps 653 mmHg 67%
    Show more